Location: ??????????
(54.7560°N, 39.1389°E)
Time: 13:09:49
(UTC+00:00)

USA 281 - Pass Details

Date: 19 May 2025
Orbit: 1078 x 1081 km, 106.0° (Epoch: 28 April)

Event Time Altitude Azimuth Distance (km) Brightness Sun altitude
Rises 23:43:52 0° 29° (NNE) 3,889 8.5 -9.2°
Reaches altitude 10° 23:46:26 10° 33° (NNE) 2,930 7.2 -9.0°
Maximum altitude 23:52:58 62° 114° (ESE) 1,207 3.6 -8.4°
Drops below altitude 10° 23:59:27 10° 195° (SSW) 2,914 4.9 -7.9°
Enters shadow 00:00:13 - 196° (SSW) 3,203 5.1 -7.8°
